Tracking 31032 objects as of 13-Jul-2025
HD Live streaming from Space Station
objects crossing your sky now

CZ-6A DEB

Track CZ-6A DEB now!
10-day predictions


NORAD ID: 56654
Int'l Code: 2022-151AGE
Perigee: 820.6 km
Apogee: 1,019.5 km
Inclination: 98.9 °
Period: 103.3 minutes
Semi major axis: 7291 km
RCS: Unknown
Launch date: November 11, 2022
Source: People's Republic of China (PRC)
Launch site: Taiyaun Space Center, China (TSC)

Note: This is SATELLITE DEBRIS
Your satellite tracking list
Your tracking list is empty




NASA's NSSDC Master Catalog

Two Line Element Set (TLE):
1 56654U 22151AGE 25194.18230366  .00000152  00000-0  13516-3 0  9994
2 56654  98.8552 170.1027 0136390 308.2363  50.6587 13.94497814113220
Source of the keplerian elements: AFSPC